Total_Precipitation_Accumulation
3.26 3.21 3.04 2.93 2.70 2.76 3.11 3.37 3.23 3.22 3.09 2.87 2.57 2.35 2.23 2.14 2.07 2.26 2.40 2.48 2.44 2.46 2.71 2.89 2.76 2.54 2.45 2.27 2.08 1.85 1.74 1.73 1.57 1.32 1.19 1.13 1.04 1.03 1.09 1.14 1.12 1.03 1.02
3.62 3.73 3.52 3.33 2.92 2.79 2.86 3.18 3.25 3.48 3.39 3.17 2.56 2.41 2.37 2.34 2.37 2.34 2.49 2.97 2.98 2.57 2.62 2.95 3.16 3.16 3.01 2.80 2.56 2.30 2.11 1.98 1.70 1.42 1.32 1.25 1.13 1.08 1.21 1.30 1.31 1.14 1.03
3.77 3.73 3.50 3.11 2.77 2.75 2.98 3.00 3.01 3.29 3.14 3.00 2.87 2.84 2.77 2.65 2.54 2.50 2.59 3.07 3.03 2.63 2.49 2.60 2.97 3.28 3.36 3.43 3.29 3.16 2.86 2.48 2.10 1.72 1.47 1.30 1.18 1.09 1.12 1.28 1.39 1.31 1.12
3.27 3.34 3.03 2.69 2.70 2.83 3.00 3.20 3.09 3.19 3.22 3.29 3.36 3.28 3.07 2.91 2.49 2.31 2.21 2.34 2.60 2.31 2.47 2.70 2.84 2.96 3.34 3.80 3.98 4.18 3.80 3.10 2.51 2.05 1.72 1.47 1.28 1.13 1.04 1.11 1.27 1.33 1.19
2.57 2.77 2.74 2.69 2.61 2.78 2.85 2.67 3.05 3.33 3.35 3.37 3.10 3.17 2.76 2.64 2.41 2.10 2.05 1.99 2.15 2.30 2.35 2.41 2.60 2.66 3.11 3.82 4.41 4.90 4.75 4.02 3.22 2.69 2.35 1.98 1.70 1.39 1.21 1.17 1.20 1.24 1.17
2.36 2.65 2.65 2.61 2.60 2.75 2.86 2.99 3.29 3.43 3.12 3.05 2.74 2.67 2.40 2.05 2.04 1.98 1.80 1.85 1.97 1.92 2.10 2.28 2.61 2.43 2.87 3.43 4.12 4.84 5.37 5.12 4.23 3.54 3.24 2.95 2.65 2.17 1.66 1.38 1.27 1.27 1.20
2.51 2.78 2.65 2.74 2.56 2.63 2.63 2.71 2.99 3.13 2.77 2.84 3.30 2.91 2.28 1.88 1.90 1.78 1.80 1.87 1.84 1.89 2.14 2.48 2.74 2.83 2.81 2.74 3.02 3.78 4.87 5.45 5.23 4.53 4.10 3.78 3.45 2.90 2.27 1.85 1.59 1.44 1.33
2.48 2.53 2.66 2.50 2.43 2.58 2.56 2.61 2.88 2.85 2.55 2.74 3.23 3.40 2.88 2.50 2.14 1.70 1.72 1.76 1.85 2.08 2.17 2.22 2.68 3.00 2.94 3.23 2.82 2.84 3.69 4.70 5.33 5.24 4.82 4.21 3.73 3.23 2.73 2.41 2.06 1.80 1.58
2.23 2.30 2.26 2.29 2.40 2.16 2.35 2.57 2.72 2.79 2.70 2.62 2.85 3.33 3.17 2.84 2.46 2.01 1.83 1.93 2.12 2.28 2.35 2.47 2.53 2.77 2.97 3.43 3.32 3.07 3.06 3.42 4.42 5.35 5.47 4.79 3.89 3.27 3.04 2.92 2.79 2.36 1.99
2.00 2.03 2.03 2.20 2.29 2.21 2.48 2.18 2.31 2.60 2.82 2.62 2.62 2.65 2.72 2.96 2.96 2.55 2.17 2.01 2.09 2.23 2.31 2.31 2.38 2.65 2.87 3.22 3.55 3.25 2.92 2.74 3.18 4.21 5.06 5.09 4.41 3.54 3.10 3.18 3.58 3.37 2.76
1.92 1.76 1.88 2.07 2.18 2.24 2.33 2.24 2.36 2.34 2.41 2.46 2.53 2.53 2.67 2.90 2.74 2.66 2.50 2.26 2.12 1.96 2.04 2.17 2.38 2.61 2.71 2.96 3.36 3.09 2.95 2.61 2.53 2.90 3.63 4.21 4.37 4.08 3.65 3.61 4.13 4.50 4.28
1.99 1.80 1.83 2.07 2.13 2.19 2.23 2.25 2.23 2.15 2.24 2.35 2.39 2.43 2.63 2.67 2.63 2.73 2.56 2.38 2.23 1.94 1.91 1.99 2.18 2.31 2.40 2.54 2.38 2.38 2.36 2.42 2.36 2.25 2.38 2.78 3.32 3.74 3.83 4.11 4.62 5.12 5.43
1.92 1.91 1.85 2.15 2.27 2.24 2.17 2.27 2.26 2.22 2.34 2.41 2.41 2.42 2.48 2.45 2.51 2.73 2.75 2.47 2.29 2.07 2.14 2.06 2.01 2.14 2.13 2.39 2.33 2.16 2.02 2.12 2.02 1.88 1.83 1.98 2.31 2.80 3.24 3.61 4.03 4.56 5.09
1.78 2.02 2.11 2.13 2.15 2.18 2.16 2.43 2.27 2.28 2.35 2.36 2.22 2.60 2.57 2.41 2.67 2.93 3.10 3.16 2.81 2.53 2.50 2.28 2.07 2.03 2.02 2.10 2.18 2.19 2.01 1.90 1.68 1.61 1.64 1.72 1.83 2.09 2.41 2.77 3.07 3.34 3.62
1.75 1.97 2.12 2.20 2.14 2.15 2.30 2.54 2.48 2.49 2.58 2.46 2.45 2.72 2.64 2.52 2.61 2.75 3.07 3.37 3.41 3.11 2.95 2.71 2.42 2.23 2.10 2.09 2.24 2.05 2.01 2.05 1.76 1.57 1.59 1.62 1.70 1.80 1.85 1.89 2.04 2.15 2.33
1.93 2.02 2.02 2.05 2.03 2.01 2.16 2.54 2.54 2.54 2.73 2.68 2.64 2.68 2.66 2.52 2.63 2.66 2.80 3.17 3.50 3.53 3.17 2.53 2.44 2.31 2.18 1.96 2.10 1.89 1.89 2.06 1.81 1.60 1.49 1.40 1.40 1.45 1.49 1.58 1.71 1.80 1.90
2.01 2.03 2.02 2.03 1.95 1.85 1.98 2.21 2.30 2.50 2.62 2.68 2.64 2.68 2.67 2.80 2.85 2.72 2.81 2.97 3.24 3.44 3.04 2.49 2.57 2.70 2.63 2.38 2.16 1.94 1.82 1.80 1.78 1.75 1.46 1.37 1.36 1.32 1.38 1.48 1.56 1.63 1.73
2.05 2.09 2.09 2.05 1.88 1.87 1.99 2.09 2.22 2.41 2.54 2.61 2.71 2.82 2.59 2.73 2.86 2.80 2.82 2.84 3.00 3.29 3.11 2.92 2.86 2.93 2.85 2.57 2.32 2.04 1.71 1.55 1.61 1.85 1.54 1.34 1.27 1.30 1.35 1.39 1.38 1.40 1.40
2.06 2.17 2.19 2.10 2.04 2.07 2.14 2.20 2.29 2.43 2.50 2.54 2.64 2.64 2.58 2.75 2.64 2.73 2.84 2.80 2.82 2.85 2.97 2.87 2.71 2.79 2.70 2.50 2.32 2.03 1.77 1.73 1.53 1.56 1.50 1.35 1.27 1.28 1.30 1.25 1.21 1.22 1.25
1.99 2.00 1.97 2.05 2.11 2.15 2.20 2.22 2.22 2.23 2.28 2.35 2.30 2.22 2.18 2.24 2.30 2.52 2.51 2.51 2.62 2.72 2.80 2.68 2.60 2.66 2.66 2.67 2.51 2.20 2.05 1.90 1.68 1.41 1.41 1.38 1.36 1.32 1.29 1.22 1.13 1.13 1.19
1.78 1.95 1.98 2.09 2.17 2.12 2.00 2.09 2.12 2.06 2.22 2.14 1.97 1.93 1.94 2.04 2.08 2.17 2.04 2.16 2.38 2.45 2.51 2.57 2.60 2.75 2.73 2.85 2.70 2.40 2.28 2.16 1.86 1.57 1.51 1.41 1.38 1.32 1.32 1.33 1.28 1.19 1.14
1.88 1.96 1.99 2.12 2.19 2.04 2.09 2.13 2.16 2.14 2.16 2.08 2.01 1.93 1.77 1.78 1.78 1.81 1.80 1.85 2.02 2.16 2.35 2.52 2.54 2.62 2.68 2.66 2.65 2.50 2.39 2.21 1.92 1.72 1.83 1.77 1.57 1.55 1.64 1.58 1.48 1.24 1.09
1.99 2.07 2.17 2.23 2.18 2.31 2.27 2.09 2.12 2.07 2.07 2.07 2.08 2.04 1.72 1.53 1.68 1.63 1.75 1.73 1.69 1.76 1.87 2.04 2.13 2.24 2.47 2.59 2.70 2.59 2.59 2.46 2.14 1.87 1.81 1.66 1.57 1.60 1.75 1.86 1.62 1.21 1.11
2.20 2.29 2.32 2.25 2.23 2.34 2.33 1.99 1.91 1.82 1.89 1.93 1.94 1.98 1.97 1.85 1.83 1.85 1.88 1.86 1.76 1.71 1.81 1.81 1.83 2.04 2.41 2.73 2.78 2.71 2.76 2.62 2.31 1.97 1.86 1.73 1.56 1.52 1.37 1.38 1.44 1.18 1.00
2.40 2.47 2.53 2.51 2.40 2.44 2.31 1.95 1.81 1.69 1.77 1.82 1.83 1.82 1.84 1.74 1.80 1.70 1.66 1.66 1.66 1.61 1.61 1.62 1.62 1.75 2.05 2.44 2.64 2.67 2.75 2.65 2.40 2.09 1.90 1.83 1.59 1.52 1.40 1.27 1.26 1.30 1.11
2.53 2.58 2.48 2.36 2.24 2.26 2.24 1.91 1.70 1.59 1.70 1.79 1.87 1.83 1.80 1.71 1.70 1.53 1.43 1.46 1.43 1.46 1.57 1.55 1.50 1.50 1.63 1.94 2.26 2.25 2.34 2.47 2.23 1.99 1.66 1.60 1.52 1.49 1.46 1.27 1.15 1.14 1.13